Regional Weather Roundup
Issued by NWS

Home | Current Version | Previous Version | Graphics & Text | Print | Product List | Glossary Off
Versions: 1 2 3 4 5 6 7 8 9 10 11 12 13 14 15 16 17 18 19 20 21 22 23 24 25 26 27 28 29 30 31 32 33 34 35 36 37 38 39 40 41 42 43 44 45 46 47 48 49 50

000
ASUS43 KMKX 172021
RWRWI

WISCONSIN REGIONAL WEATHER ROUNDUP
NATIONAL WEATHER SERVICE MILWAUKEE/SULLIVAN WI
200 PM CST TUE JAN 17 2017

NOTE: "FAIR" INDICATES FEW OR NO CLOUDS BELOW 12,000 FEET WITH NO
SIGNIFICANT WEATHER AND/OR OBSTRUCTIONS TO VISIBILITY.

WIZ001-002-006>008-014>016-023>028-172100-
NORTHWEST WISCONSIN

CITY           SKY/WX    TMP DP  RH WIND       PRES   REMARKS
SUPERIOR ARPT  MOSUNNY   32  28  85 CALM      29.94S FOG
ASHLAND        SUNNY     37  29  72 CALM      29.91F
HAYWARD        SUNNY     44  22  41 VRB3      29.89S
SIREN          SUNNY     38  27  63 W9        29.93S WCI  32
CUMBERLAND     SUNNY     36  30  80 NW6       29.91R WCI  31
RICE LAKE      CLOUDY    36  31  81 CALM      29.91F
CHETEK         MOSUNNY   37  32  82 CALM      29.90F
LADYSMITH      PTSUNNY   37  32  83 NW5       29.90F WCI  33
EAU CLAIRE     CLOUDY    37  35  92 CALM      29.89F
MENOMONIE      CLOUDY    36  36 100 W5        29.91S WCI  32
NEW RICHMOND   SUNNY     34  29  82 NW5       29.94S WCI  30
OSCEOLA        SUNNY     36  28  72 NW6       29.98S WCI  31
$$

WIZ003>005-009-010-017-018-172100-
NORTH CENTRAL WISCONSIN

CITY           SKY/WX    TMP DP  RH WIND       PRES   REMARKS
MANITOWISH WTR CLOUDY    40  25  56 N5        29.85F
ARBOR VITAE    CLOUDY    40  31  70 N8        29.85S WCI  35
WOODRUFF       CLOUDY    40  31  70 N8        29.85S WCI  35
RHINELANDER    CLOUDY    40  33  76 CALM      29.85S
EAGLE RIVER    CLOUDY    39  30  70 N5        29.84S
LAND O LAKES   CLOUDY    40  27  60 N5        29.86S
PHILLIPS       SUNNY     41  33  73 CALM      29.86S
TOMAHAWK       CLOUDY    39  32  75 N5        29.85F
MEDFORD        CLOUDY    36  33  88 N3        29.85F
MERRILL        CLOUDY    37  35  92 N6          N/A  WCI  32
$$

WIZ029-030-035-036-043>047-172100-
CENTRAL WISCONSIN

CITY           SKY/WX    TMP DP  RH WIND       PRES   REMARKS
WAUSAU         CLOUDY    36  33  89 N3        29.84R
MOSINEE        CLOUDY    34  34 100 N3        29.86R FOG
MARSHFIELD     LGT RAIN  35  33  92 N5        29.86R FOG     WCI  31
STEVENS POINT  CLOUDY    32  32 100 CALM      29.86R FOG
WAUPACA        CLOUDY    36  33  91 CALM      29.86R FOG
WAUTOMA        CLOUDY    35  34  96 N6        29.86R WCI  30
WISC RAPIDS    CLOUDY    35  34  96 N3        29.87R
CAMP DOUGLAS   CLOUDY    34  34 100 NW5       29.86S FOG     WCI  30
$$

WIZ011>013-019>022-031-037>040-048>050-172100-
NORTHEAST WISCONSIN

CITY           SKY/WX    TMP DP  RH WIND       PRES   REMARKS
ANTIGO         CLOUDY    33  33 100 N3        29.84R FOG
SHAWANO        FOG       35  33  94 N3        29.86R VSB 3/4
OCONTO         CLOUDY    33  33  97 N6        29.84R WCI  28
STURGEON BAY   MIX PCPN  36  34  93 N7        29.83R VSB 1   WCI  30
GREEN BAY      CLOUDY    36  35  96 N6        29.83S FOG     WCI  31
MANITOWOC      LGT RAIN  35  34  96 MISG      29.82S FOG
APPLETON         N/A     34  34 100 N6        29.82S FOG     WCI  29
CLINTONVILLE   FOG       34  32  93 N5        29.86R VSB 1/2 WCI  30
OSHKOSH        LGT RAIN  34  32  92 NW6       29.84R FOG     WCI  29
$$

WIZ032>034-041-042-053>061-172100-
SOUTHWEST WISCONSIN

CITY           SKY/WX    TMP DP  RH WIND       PRES   REMARKS
LA CROSSE      LGT SNOW  35  33  92 NW7       29.90S FOG     WCI  29
SPARTA         DRIZZLE   33  33 100 W3        29.89S
VIROQUA        CLOUDY    33  33 100 CALM      29.86S
BOSCOBEL       CLOUDY    36  33  89 W3        29.89S FOG
PRAIRIE DU CHI CLOUDY    35  34  96 CALM      29.90R
PLATTEVILLE    CLOUDY    34  34 100 W9        29.88R WCI  27
$$

WIZ056-057-062-063-064-067-068-172100-
SOUTH CENTRAL WISCONSIN

CITY           SKY/WX    TMP DP  RH WIND       PRES   REMARKS
REEDSBURG      CLOUDY    33  33 100 NW5       29.86S WCI  29
BARABOO/DELLS  CLOUDY    33  33  99 NW6       29.85R WCI  28
LONE ROCK      CLOUDY    35  33  92 W7        29.88S WCI  29
MINERAL POINT  FOG       34  34 100 W9        29.86R VSB 1   WCI  26
MADISON        CLOUDY    34  33  96 NW5       29.86R FOG     WCI  30
MIDDLETON      CLOUDY    36  36 100 W5        29.86R WCI  32
WATERTOWN      CLOUDY    34  34 100 W5        29.84R FOG     WCI  30
MONROE         CLOUDY    34  34 100 W13       29.85S FOG     WCI  25
JANESVILLE     CLOUDY    36  36 100 W9        29.85S FOG     WCI  29
$$

WIZ051-052-058>065-066-070>072-172100-
SOUTHEAST WISCONSIN

CITY           SKY/WX    TMP DP  RH WIND       PRES   REMARKS
MILWAUKEE      CLOUDY    40  35  83 W8        29.82S WCI  34
WAUKESHA       CLOUDY    34  34 100 W9        29.83S FOG     WCI  26
MILWAUKEE/TIMM CLOUDY    37  34  87 W7        29.83S WCI  32
RACINE         CLOUDY    38  36  92 W6        29.85R WCI  33
KENOSHA        CLOUDY    37  35  92 W10       29.85R WCI  30
FOND DU LAC    CLOUDY    34  32  92 NW7       29.83S FOG     WCI  28
SHEBOYGAN      CLOUDY    34  33  96 W8        29.82S FOG     WCI  27
WEST BEND      CLOUDY    34  34 100 NW6       29.82S FOG     WCI  29
JUNEAU         FOG       32  32  99 NW6       29.84S VSB 1/2 WCI  27
$$

LSZ147-162-172100-
LAKE SUPERIOR

STATION/POSITION TIME  TEMP    WIND        PRES    WAVE
                       AIR SEA DIR/SP/G            HT/PER
                 (UTC) (F)     (DEG/KT/KT) (MB)    (FT/S)
DEVILS ISLAND    2000   33     300/  3/  4 1014.2R
PORT WING        1940   33     280/  2/  7 1013.9S
SAXON HARBOR     1940   37      50/  2/  2 1013.2F
$$

LMZ867-665-643>646-172100-
LAKE MICHIGAN

STATION/POSITION TIME  TEMP    WIND        PRES    WAVE
                       AIR SEA DIR/SP/G            HT/PER
                 (UTC) (F)     (DEG/KT/KT) (MB)    (FT/S)
NORTHPORT PIER   1940   34      40/ 10/ 14 1010.5S
SISTER BAY       1950   35      20/  7/ 10   N/A
KEWAUNEE LAKESHO 1954   36     340/  4/  5 1009.0F
SHEBOYGAN LAKESH 2000   35     290/  8/  9 1010.1R
PORT WASHINGTON  1940   37     300/  4/  7 1010.8S
MILWAUKEE LAKESH 2000   38     290/  7/  8   N/A
KENOSHA   LAKESH 2000   38     270/  7/ 11 1010.8
$$

TC  - TEMPERATURE IN CELSIUS
VSB - VISIBILITY IN STATUTE MILES
WCI - WIND CHILL INDEX
HX  - HEAT INDEX




USA.gov is the U.S. government's official web portal to all federal, state and local government web resources and services.